Regional Weather Roundup
Issued by NWS

Home | Current Version | Previous Version | Graphics & Text | Print | Product List | Glossary On
Versions: 1 2 3 4 5 6 7 8 9 10 11 12 13 14 15 16 17 18 19 20 21 22 23 24 25 26 27 28 29 30 31 32 33 34 35 36 37 38 39 40 41 42 43 44 45 46 47 48 49 50
000
ASUS45 KTFX 171004
RWRMT
MONTANA HOURLY WEATHER ROUNDUP
NATIONAL WEATHER SERVICE GREAT FALLS MT
404 AM MDT WED SEP 17 2014

NOTE: "FAIR" INDICATES FEW OR NO CLOUDS BELOW 12000 FEET WITH NO
SIGNIFICANT WEATHER AND/OR OBSTRUCTIONS TO VISIBILITY.

* THESE STATIONS ARE NOT UNDER NWS QUALITY CONTROL. THEY DO NOT
   REPORT WEATHER SUCH AS PRECIPITATION OR FOG.

MTZ001>007-043-171100-
WEST OF THE DIVIDE
CITY           SKY/WX    TMP DP  RH WIND       PRES   REMARKS
KALISPELL      PTCLDY    45  43  93 W7        29.89F
MISSOULA       CLEAR     54  45  72 CALM      29.94S
BUTTE          CLEAR     43  37  79 CALM      30.07S
MULLAN PASS    PTCLDY    63  36  37 S6        30.04S
* ESSEX        N/A       49  44  83 N/A        N/A
* LINCOLN      N/A       41  38  89 N/A        N/A
* LOOKOUT PASS N/A       54  40  59 S3         N/A
* POLSON       N/A       57  40  53 N/A        N/A
* RONAN APT    MOCLDY    54  46  74 N/A        N/A
* SEELEY LAKE  N/A       43  38  83 NE1        N/A
* THOMP F APT  PTCLDY    54  35  49 NE4G13     N/A
$$

MTZ008-052>055-171100-
SOUTHWEST MONTANA
CITY           SKY/WX    TMP DP  RH WIND       PRES   REMARKS
BOZEMAN        PTCLDY    52  46  80 SW8       30.00S
DILLON         CLEAR     48  45  89 S6        30.04S
W YELLOWSTONE  CLEAR     36  36 100 CALM      30.16S
* THREE FORKS  CLEAR     46  46 100 N/A        N/A
* BOULDER HILL N/A       53  42  66 S10        N/A
* RAYNOLDS PAS N/A       46   9  22 N/A        N/A
* WHITEHALL    N/A       47  41  80 SW2G8      N/A
* WISE RIVER   N/A       43  38  83 W3         N/A
$$

MTZ009>010-012-014-046-048-049-054-171100-
EAST SLOPES AND CENTRAL MONTANA
CITY           SKY/WX    TMP DP  RH WIND       PRES   REMARKS
CUT BANK       PTCLDY    52  43  72 W8        29.91F
GREAT FALLS    MOCLDY    55  46  72 S5        29.91F
HELENA         PTCLDY    57  46  67 CALM      29.97S
MALMSTROM AFB  MOCLDY    61  45  56 SW6       29.92F
* CONRAD       CLOUDY    54  48  80 N/A        N/A
* EAST GLACIER N/A       52  40  64 VRB10      N/A
* MONARCH      N/A       50  41  71 S9         N/A
* PENDROY      N/A       62  41  46 W5         N/A
* ROGERS PASS  N/A       56  39  53 NW4        N/A
* SAINT MARY   N/A       42  39  89 S4         N/A
* SWEET GRASS  N/A       65  36  34 W4         N/A
$$

MTZ011-013-016-021-035-040-045-047-050-051-171100-
NORTH CENTRAL MONTANA
CITY           SKY/WX    TMP DP  RH WIND       PRES   REMARKS
HAVRE          CLOUDY    52  46  80 SW5       29.86S
LEWISTOWN      MOCLDY    54  43  67 SW6       29.96S
* CHESTER      N/A       54  46  74 E2         N/A
* DENTON       N/A       57  47  69 SW1        N/A
* JUDITH GAP   N/A       65  47  52 W17G27     N/A
* LOMA         N/A       57  49  75 SW4        N/A
$$

MTZ017>020-022>027-061-062-171100-
NORTHEAST MONTANA
CITY           SKY/WX    TMP DP  RH WIND       PRES   REMARKS
GLASGOW        PTCLDY    50  39  66 E9        29.89S
JORDAN         MOCLDY    48  46  93 CALM      29.88F
SIDNEY         PTCLDY    41  37  86 CALM      29.94S
WOLF POINT     MOCLDY    46  37  71 E6        29.91F
* BEAVER HILL  N/A       50  44  80 E11        N/A
* CIRCLE       N/A       48  42  80 N/A        N/A
* LINDSAY DVD  N/A       52  42  69 E4         N/A
* NAVAJO       N/A       50  36  59 SW2        N/A
* SACO         N/A       45  42  89 NE7        N/A
$$

MTZ028>042-056>058-171100-
SOUTHCENTRAL AND SOUTHEAST MONTANA
CITY           SKY/WX    TMP DP  RH WIND       PRES   REMARKS
BAKER          PTCLDY    45  43  93 SE5       29.94F
BILLINGS       MOCLDY    66  43  43 W14       29.95R
LIVINGSTON     PTCLDY    57  46  67 NW9       29.99S
MILES CITY     PTCLDY    52  46  80 NE6       29.90S
* LAUREL APT   MOCLDY    64  43  47 W7         N/A
* ROUNDUP APT  PTCLDY    54  45  72 SW8        N/A
* ALZADA       N/A       47  42  83 N/A        N/A
* HYSHAM       N/A       58  41  53 W9         N/A
* LAME DEER    N/A       65  35  33 SW6        N/A
* REED POINT   N/A       55  48  77 SW1G8      N/A
* ROSCOE HILL  N/A       63  38  40 S4         N/A
$$

REGIONAL REPORTS...DAKOTAS
CITY           SKY/WX    TMP DP  RH WIND       PRES   REMARKS
WILLISTON      FOG       39  37  93 CALM      29.93S
DICKINSON      PTCLDY    45  39  80 CALM      29.93F
BEACH          N/A       45  45 100 SE3       29.95S
CROSBY         CLEAR     45  41  86 S9        29.93S
TIOGA          CLEAR     36  36 100 CALM      29.97S
WATFORD CITY   CLEAR     36  32  85 SW3       29.92S
BISMARCK       CLEAR     43  43 100 CALM      29.94S
GRAND FORKS    PTCLDY    45  41  86 CALM      29.89S
FARGO          CLEAR     48  45  89 S7        29.89S
BUFFALO SD     CLEAR     52  45  77 NE5       29.88S
RAPID CITY     CLEAR     57  41  55 NW10      29.94R
$$

REGIONAL REPORTS...WYOMING/IDAHO/WASHINGTON
CITY           SKY/WX    TMP DP  RH WIND       PRES   REMARKS
GILLETTE       MOCLDY    66  36  33 SW17G25   29.99F
SHERIDAN       CLOUDY    59  45  60 W6        29.97R
CODY           PTCLDY    52  43  72 S5        30.06S
YELLOWSTONE LA CLEAR     36  34  92 NW3       30.25S
SALMON         PTCLDY    46  41  83 CALM      30.00S
MULLAN PASS    PTCLDY    63  36  37 S6        30.04S
SAND POINT     PTCLDY    46  46 100 CALM      29.87S
SPOKANE        CLOUDY    61  34  36 S9        29.84S

$$



USA.gov is the U.S. government's official web portal to all federal, state and local government web resources and services.